Regional Weather Roundup
Issued by NWS Portland, ME

Current Version | Previous Version | Text Only | Print | Product List | Glossary Off
Versions: 1 2 3 4 5 6 7 8 9 10 11 12 13 14 15 16 17 18 19 20 21 22 23 24 25 26 27 28 29 30 31 32 33 34 35 36 37 38 39 40 41 42 43 44 45 46 47 48 49 50
000 ASUS41 KGYX 162205 RWRGYX WEATHER ROUNDUP FOR MAINE AND NEW HAMPSHIRE NATIONAL WEATHER SERVICE GRAY ME 500 PM EST SAT FEB 16 2019 MEZ002-005-006-010-012-015-018-020-021-024-026-027-029-162300- MAINE CITY SKY/WX TMP DP RH WIND PRES REMARKS PORTLAND CLOUDY 37 20 50 W10 29.78R SANFORD FAIR 34 19 54 NW10G21 29.80R BAR HARBOR FAIR 33 20 58 NW3 29.74R WISCASSET MOCLDY 35 19 52 VRB3 29.78R ROCKLAND FAIR 35 18 49 NW7 29.75R FRYEBURG FAIR 31 16 54 W8G18 29.79R LEWISTONAUBURN CLOUDY 33 19 56 NW12 29.77R AUGUSTA CLOUDY 32 17 54 NW12G24 29.77R WATERVILLE CLOUDY 30 19 63 NW9 29.74R BANGOR MOCLDY 33 17 51 W10G18 29.74R GREENVILLE N/A 22 8 55 NW10G22 29.66R WCI 11 MILLINOCKET FLURRIES 29 20 69 NW9 29.72R HOULTON CLOUDY 29 20 69 W8 29.64R PRESQUE ISLE CLOUDY 28 18 66 W16 29.64R WCI 16 FRENCHVILLE LGT SNOW 27 20 75 W15 29.58R WCI 15 CARIBOU MOCLDY 28 17 63 VRB7G17 29.61R $$ NHZ002-005-008-009-011-012-014-162300- NEW HAMPSHIRE CITY SKY/WX TMP DP RH WIND PRES REMARKS PORTSMOUTH PTCLDY 37 18 46 W13 29.78R ROCHESTER FAIR 35 19 52 NW17G24 29.78R NASHUA FAIR 37 18 46 NW14 29.83R MANCHESTER FAIR 37 17 44 NW13 29.80R CONCORD FAIR 35 18 49 NW13 29.81R LACONIA FAIR 31 20 63 W6 29.81R PLYMOUTH FAIR 32 18 55 NW12 29.82R BERLIN CLOUDY 25 14 63 NW10G18 29.79R WCI 15 WHITEFIELD CLOUDY 27 13 55 NW13G18 29.82R WCI 16 JAFFREY MOCLDY 32 17 54 NW8 29.80R KEENE FAIR 34 17 50 W8 29.84R LEBANON CLOUDY 34 16 47 NW7 29.84R MT WASHINGTON BLWGSNOW 3 3 100 W54G62 N/A VSB 1/16WCI -27 $$ VTZ005-007-008-162300- VERMONT CITY SKY/WX TMP DP RH WIND PRES REMARKS ST JOHNSBURY N/A 26 14 60 MISG 29.86R MONTPELIER FAIR 23 11 60 NW14G22 29.89R WCI 11 BURLINGTON FAIR 26 10 50 N10 29.94R WCI 16 $$ MAZ007-012-024-CTZ003-RIZ002-NYZ038-NYZ072-162300- SOUTHERN NEW ENGLAND AND NY CITY SKY/WX TMP DP RH WIND PRES REMARKS BOSTON FAIR 41 18 39 NW13 29.81R WORCESTER FAIR 32 18 56 W14 29.79R NANTUCKET FAIR 37 24 59 W6 29.80R PROVIDENCE FAIR 40 19 43 NW9 29.82R HARTFORD FAIR 36 17 46 NW14 29.86R ALBANY FAIR 30 14 51 W20G28 29.94S WCI 17 NEW YORK CITY FAIR 41 19 41 NW15G23 29.87R $$ ANZ081-ANZ082-ANZ150-NHZ014-MEZ023>029-162300- COASTAL MARINE OBSERVATIONS STATION/POSITION TIME TEMP WIND PRES WAVE AIR SEA DIR/SP/G HT/PER (UTC) (F) (DEG/KT/KT) (MB) (FT/S) MOUNT DESERT ROC 2200 35 290/ 18/ 20 1007.0R MATINICUS ROCK 2100 37 290/ 18/ 21 1006.1R ISLE OF SHOALS 2100 38 300/ 20/ 22 1007.7R JEFFREYS LEDGE 2108 41 N/A 4/ 7 CASHES LEDGE BUO 2150 36 40 1008.0R 5/ 8 $$ .............KEY.............. WCI - WIND CHILL TC - TEMPERATURE IN CELSIUS VSB - VISIBILITY IN MILES HX - HEAT INDEX FAIR- INDICATES FEW OR NO CLOUDS BELOW 12,000 FT, WITH NO SIGNIFICANT WEATHER AND/OR OBSTRUCTIONS TO VISIBILITY.

USA.gov is the U.S. government's official web portal to all federal, state and local government web resources and services.